Hovedside
METAR-TAF:

METAR-TAF

Lufthavner :

Siskiyou County Airport

Montague, California, USA

breddegrad: 41-46-53N, lengdegrad: 122-28-05W, høyde over havet: 807 m

Gjeldene værobservasjon

Denne rapporten ble laget for 19 minutter siden, klokken 17:53 UTC
Vind 9 kt fra Nord-nordøst
Temperatur 21°C
Luftfuktighet 25%
Trykk 1017 hPa
Sikt: 16.1 km
Skyfri himmel

METAR: KSIY 091753Z AUTO 03009KT 10SM CLR 21/00 A3003 RMK AO2 SLP164 T02060000 10206 20061 58005

Tid: 11:12 (18:12 UTC)


TAF: fraværende

Værobservasjoner og værvarsel for over 4000 flyplasser (METAR- og TAF-rapporter).

Tilgjengelige stasjoner er representert av de røde og gule prikkene på kartet.

Hold musepekeren over prikken for å se navnet på stasjonen.

Klikk så for å se værobservasjoner og -varsler.

For å forandre kartet kan du klikke på den grønne knappen med svart kryss for å zoome inn, på den grønne knappen med strek for å zoome ut, eller på de grønne pilene for å se tilstøtende kart.


METAR-TAF: